SL-14 R/B (17567 NORAD) Tracking and Keplerian Element Data

This shows tracking and keplerian element data for the satellite.

Feedback or suggestion? Click here.




ElementValue
Catalog17567
NameSL-14 R/B
Epoch Orbit86354
Epoch Day15.74668849
Epoch Year2022
RAAN72.4567
Inclination82.5281
Eccentricity0.0018125
Argument of Perigee221.079
Mean Anonmoly138.9062
Mean Motion14.83849304
Decay Rate1.86E-06
L11 17567U 87024B 22015.74668849 .00000186 00000+0 19562-4 0 9990
L22 17567 82.5281 72.4567 0018125 221.0790 138.9062 14.83849304863542

Live tracking and technical data element details for SL-14 R/B (NORAD 17567). SL-14 R/B can be tracked NOW for your location showing map with azimuth and elevation plus other details from your city location.

Track the satellite on the map from your city or location and see movement details for azimuth, elevation, latitude, longitude, range, height, and movement on the map or in text.







IsCatalogInMostPopularTable: catalog: 17567, numindb: 291
Update: records affected: 1



GetName: 17567 SL-14 R/B

Hit Count: updated at: Mon, 17 Jan 2022 01:27:50 GMT